[[{"header":{"parameterUnit":"m.s-1","parameterCategory":1,"la1":30.2991,"la2":30.254,"lo1":-89.0895,"lo2":-89.0444,"dy":0.0017,"dx":0.0017,"nx":28,"ny":28,"refTime":"2024-04-30T03:00:00:Z","depth":0,"parameterNumber":2,"parameterNumberName":"U-component_of_WINDS"},"data":[0,0,0,0,0,0,0,0,0,0,0,0,0,0,0,0,0,0,0,0,0,0,0,0,0,0,0,0,0,0,0,0,0,0,0,0,0,0,0,0,0,0,0,0,0,0,0,0,0,0,0,0,0,0,0,0,0,0,-1.1568,-1.1568,0,-1.157,-1.157,-1.157,-1.1547,-1.1547,-1.1546,-1.1546,-1.1548,-1.1548,-1.1549,0,0,0,0,0,0,0,0,0,0,0,0,0,-1.1546,-1.1547,-1.1568,-1.1568,-1.1568,-1.157,-1.157,-1.157,-1.1548,-1.1547,-1.1546,-1.1545,-1.1547,-1.1548,-1.1549,0,0,0,0,0,0,0,0,0,0,0,0,0,-1.1552,-1.1547,-1.1568,-1.1557,-1.1556,-1.157,-1.157,-1.157,-1.1548,-1.1547,-1.1546,-1.1545,-1.1547,-1.1548,-1.1549,-1.1573,0,0,-1.1552,-1.1552,0,0,0,0,0,0,0,0,-1.1552,-1.1553,-1.1559,-1.1558,-1.1557,-1.1557,-1.1563,-1.1571,-1.1548,-1.1551,-1.1546,-1.1545,-1.1552,-1.1552,-1.1554,-1.1573,-1.1573,-1.1552,-1.1552,-1.1553,-1.1553,0,0,0,0,0,0,0,-1.1552,-1.1553,-1.1569,-1.1559,-1.1558,-1.1552,-1.1552,-1.1564,-1.1556,-1.1551,-1.1549,-1.155,-1.1551,-1.1554,-1.1554,-1.1573,-1.1552,-1.1553,-1.1553,-1.1553,-1.1611,-1.1612,0,0,0,0,0,0,-1.1553,-1.1553,-1.1569,-1.1569,-1.1552,-1.1553,-1.1553,-1.1558,-1.1556,-1.1555,-1.155,-1.1548,-1.1552,-1.1553,-1.1554,-1.1581,-1.1553,-1.1554,-1.1554,-1.161,-1.1611,-1.1612,0,0,0,0,0,0,-1.1552,-1.1554,-1.1569,-1.156,-1.1562,-1.1555,-1.156,-1.1559,-1.1561,-1.1556,-1.1554,-1.1554,-1.1552,-1.1553,-1.1568,-1.1581,-1.1554,-1.1555,-1.1608,-1.161,-1.1611,-1.1637,0,0,0,0,0,0,-1.1552,-1.1554,-1.1563,-1.1561,-1.1562,-1.1582,-1.1561,-1.1559,-1.1563,-1.1561,-1.1559,-1.1558,-1.1551,-1.1567,-1.1569,-1.1582,-1.1556,-1.1607,-1.1609,-1.1611,-1.1635,-1.1639,-1.1642,0,0,0,0,0,-1.1551,-1.157,-1.1564,-1.1566,-1.1573,-1.1583,-1.1584,-1.1575,-1.1564,-1.1573,-1.1569,-1.1558,-1.158,-1.1569,-1.1571,-1.1584,-1.1606,-1.1609,-1.1611,-1.1633,-1.1638,-1.1642,0,0,0,0,0,0,-1.1575,-1.157,-1.1562,-1.1582,-1.1583,-1.158,-1.159,-1.1581,-1.1586,-1.1584,-1.1573,-1.1573,-1.159,-1.1589,-1.1576,-1.1607,-1.1591,-1.1594,-1.1607,-1.1612,-1.1616,-1.1615,-1.1556,0,0,0,0,0,-1.1582,-1.1591,-1.1586,-1.1603,-1.1604,-1.1597,-1.1601,-1.1595,-1.1596,-1.1596,-1.1594,-1.1595,-1.1602,-1.1607,-1.1613,-1.1635,-1.1634,-1.1645,-1.1649,-1.1652,-1.1654,-1.1665,-1.167,-1.1619,-1.1619,-1.1619,0,0,-1.1597,-1.1596,-1.1602,-1.1608,-1.1608,-1.1617,-1.1598,-1.1608,-1.1615,-1.1598,-1.1612,-1.161,-1.1611,-1.1629,-1.1637,-1.1629,-1.1668,-1.1655,-1.1657,-1.1658,-1.1668,-1.1673,-1.1677,-1.162,-1.162,-1.162,0,0,-1.163,-1.163,-1.1644,-1.1645,-1.1645,-1.1641,-1.1644,-1.1642,-1.164,-1.1654,-1.1642,-1.1649,-1.1662,-1.1663,-1.1665,-1.1698,-1.1688,-1.1701,-1.1721,-1.1731,-1.1735,-1.1739,-1.175,-1.1754,-1.1703,-1.1703,-1.1703,0,-1.1649,-1.1662,-1.1652,-1.1664,-1.1667,-1.1652,-1.1666,-1.1667,-1.167,-1.1672,-1.1663,-1.1678,-1.1678,-1.1696,-1.1704,-1.1706,-1.171,-1.17,-1.1735,-1.1739,-1.1742,-1.1753,-1.1757,-1.1705,-1.1704,-1.1704,-1.1704,0,-1.1685,-1.1694,-1.1706,-1.1708,-1.1713,-1.1725,-1.1718,-1.1723,-1.1717,-1.1713,-1.1727,-1.1726,-1.1732,-1.1736,-1.1729,-1.1753,-1.1748,-1.1737,-1.1721,-1.1748,-1.1758,-1.1762,-1.1707,-1.1706,-1.1706,-1.1705,0,0,-1.1732,-1.1729,-1.1734,-1.1735,-1.1734,-1.1741,-1.1753,-1.1759,-1.1764,-1.1766,-1.1776,-1.1787,-1.1777,-1.1779,-1.1773,-1.1782,-1.1808,-1.1771,-1.177,-1.1777,-1.1834,-1.1841,-1.1846,-1.1802,-1.1802,-1.1803,-1.1833,0,-1.1763,-1.1783,-1.1775,-1.1796,-1.1804,-1.179,-1.18,-1.1802,-1.1798,-1.1805,-1.1802,-1.1809,-1.1796,-1.1798,-1.1806,-1.1803,-1.1819,-1.1801,-1.181,-1.181,-1.1809,-1.1851,-1.1859,-1.1888,-1.1837,-1.1838,-1.1838,0,-1.1801,-1.1805,-1.1827,-1.1825,-1.1828,-1.1838,-1.1842,-1.1849,-1.185,-1.1847,-1.185,-1.1841,-1.1853,-1.1837,-1.1852,-1.184,-1.1844,-1.1843,-1.1843,-1.1843,-1.1826,-1.1852,-1.1897,-1.1901,-1.1844,-1.1844,-1.1843,0,-1.1833,-1.1844,-1.1858,-1.1859,-1.1858,-1.1864,-1.1864,-1.1864,-1.1868,-1.1872,-1.1874,-1.1879,-1.1882,-1.1886,-1.1879,-1.1868,-1.1896,-1.1879,-1.1893,-1.1894,-1.1899,-1.1899,-1.1945,-1.1903,-1.1903,-1.1903,-1.1903,0,-1.1868,-1.1881,-1.1872,-1.188,-1.1895,-1.1886,-1.1901,-1.1899,-1.1899,-1.1907,-1.1896,-1.1904,-1.1894,-1.1901,-1.1896,-1.191,-1.1911,-1.1909,-1.1907,-1.1909,-1.191,-1.1911,-1.1908,-1.1904,-1.1903,-1.1903,-1.1903,0,-1.1905,-1.1899,-1.1913,-1.1911,-1.191,-1.1921,-1.1919,-1.1927,-1.1923,-1.1933,-1.1935,-1.193,-1.1937,-1.1931,-1.1938,-1.1935,-1.1952,-1.1948,-1.1952,-1.1951,-1.1965,-1.1963,-1.2013,-1.2018,-1.1973,-1.1974,-1.1974,0,-1.1927,-1.1937,-1.1936,-1.194,-1.194,-1.1948,-1.1952,-1.1943,-1.1948,-1.1949,-1.1957,-1.1964,-1.1968,-1.1981,-1.1978,-1.1983,-1.1979,-1.1996,-1.1979,-1.1981,-1.1978,-1.1977,-1.1978,-1.1999,-1.1999,-1.2,-1.2,0,-1.1967,-1.1964,-1.1969,-1.1974,-1.1979,-1.1982,-1.1985,-1.1989,-1.1981,-1.1986,-1.1994,-1.1997,-1.2005,-1.2011,-1.2016,-1.2015,-1.2006,-1.2005,-1.2009,-1.2011,-1.2012,-1.2011,-1.196,-1.2004,-1.2003,-1.2003,-1.2003,-1.2003,-1.1997,-1.2005,-1.2005,-1.2012,-1.2013,-1.2016,-1.2023,-1.202,-1.2026,-1.2031,-1.2026,-1.2035,-1.2036,-1.2041,-1.2042,-1.2049,-1.2041,-1.2047,-1.2048,-1.2049,-1.2051,-1.2012,-1.2049,-1.2049,-1.2049,-1.2049,-1.2049,0,-1.2036,-1.2035,-1.2042,-1.2045,-1.2051,-1.2042,-1.2044,-1.2049,-1.2057,-1.2058,-1.2063,-1.2072,-1.2078,-1.2075,-1.2081,-1.2087,-1.2083,-1.2089,-1.2088,-1.2088,-1.2057,-1.2053,-1.2092,-1.2092,-1.2092,-1.2092,-1.2092,-1.2092,-1.2056,-1.207,-1.2066,-1.208,-1.2079,-1.2088,-1.209,-1.2092,-1.2093,-1.2103,-1.2109,-1.2107,-1.2106,-1.2112,-1.2117,-1.2116,-1.2118,-1.2126,-1.2123,-1.2094,-1.209,-1.2086,-1.2082,-1.2126,-1.2126,-1.2153,-1.2153,-1.2153]},{"header":{"parameterUnit":"m.s-1","parameterCategory":1,"la1":30.2991,"la2":30.254,"lo1":-89.0895,"lo2":-89.0444,"dy":0.0017,"dx":0.0017,"nx":28,"ny":28,"refTime":"2024-04-30T03:00:00:Z","depth":0,"parameterNumber":3,"parameterNumberName":"V-component_of_WINDS"},"data":[0,0,0,0,0,0,0,0,0,0,0,0,0,0,0,0,0,0,0,0,0,0,0,0,0,0,0,0,0,0,0,0,0,0,0,0,0,0,0,0,0,0,0,0,0,0,0,0,0,0,0,0,0,0,0,0,0,0,0.0853,0.0853,0,0.083,0.083,0.083,0.0819,0.0819,0.0819,0.082,0.0794,0.0793,0.0792,0,0,0,0,0,0,0,0,0,0,0,0,0,0.0886,0.0886,0.0853,0.0853,0.0853,0.083,0.083,0.083,0.0819,0.0819,0.0819,0.082,0.0794,0.0793,0.0792,0,0,0,0,0,0,0,0,0,0,0,0,0,0.0868,0.0886,0.0853,0.0845,0.0844,0.083,0.083,0.083,0.0819,0.0819,0.0819,0.082,0.0794,0.0793,0.0792,0.0784,0,0,0.0789,0.0788,0,0,0,0,0,0,0,0,0.087,0.0867,0.0847,0.0846,0.0844,0.0828,0.0832,0.0814,0.0819,0.0829,0.082,0.082,0.0805,0.0803,0.0798,0.0783,0.0782,0.0788,0.0788,0.0787,0.0787,0,0,0,0,0,0,0,0.0871,0.0868,0.0844,0.0846,0.0845,0.0842,0.0839,0.0829,0.0817,0.0828,0.0827,0.0825,0.0804,0.0799,0.0798,0.0781,0.0789,0.0788,0.0787,0.0786,0.0758,0.0758,0,0,0,0,0,0,0.0874,0.0869,0.0845,0.0843,0.0857,0.0841,0.0838,0.0833,0.0817,0.0814,0.0825,0.0824,0.0801,0.0799,0.0797,0.0786,0.0787,0.0786,0.0786,0.0758,0.0758,0.0758,0,0,0,0,0,0,0.0874,0.0872,0.0846,0.0856,0.0853,0.084,0.0835,0.0833,0.0828,0.0814,0.0812,0.0822,0.0801,0.0798,0.0787,0.0785,0.0786,0.0785,0.0758,0.0758,0.0758,0.0766,0,0,0,0,0,0,0.0875,0.0872,0.0869,0.0856,0.0852,0.0838,0.0835,0.0832,0.0826,0.0825,0.0811,0.0809,0.0801,0.0789,0.0786,0.0784,0.0784,0.0759,0.0758,0.0758,0.0766,0.0766,0.0766,0,0,0,0,0,0.0877,0.0872,0.0869,0.0866,0.0849,0.0838,0.0835,0.0827,0.0826,0.0823,0.0814,0.0809,0.0786,0.0788,0.0785,0.0782,0.0759,0.0758,0.0758,0.0766,0.0766,0.0766,0,0,0,0,0,0,0.0885,0.087,0.0867,0.0858,0.0849,0.0836,0.0832,0.0827,0.0818,0.0818,0.0807,0.0804,0.0794,0.0787,0.0789,0.0773,0.0772,0.0771,0.0779,0.0779,0.0779,0.0781,0.0783,0,0,0,0,0,0.0885,0.0878,0.0866,0.0859,0.0855,0.0844,0.0839,0.0833,0.0823,0.0819,0.081,0.08,0.079,0.0784,0.0774,0.0765,0.0761,0.0761,0.0761,0.0761,0.0761,0.0755,0.0754,0.0757,0.0757,0.0757,0,0,0.0887,0.0878,0.0874,0.086,0.0853,0.0845,0.0841,0.0833,0.0827,0.0818,0.0807,0.08,0.0788,0.0778,0.0773,0.0771,0.0759,0.0761,0.0761,0.0761,0.0754,0.0754,0.0754,0.0757,0.0757,0.0757,0,0,0.0885,0.0878,0.0872,0.0865,0.0854,0.0846,0.0845,0.0832,0.0827,0.0817,0.081,0.0802,0.0786,0.0777,0.0771,0.0767,0.0761,0.0764,0.0765,0.0759,0.0759,0.0758,0.0757,0.0756,0.0763,0.0763,0.0763,0,0.0888,0.0877,0.0869,0.0861,0.0855,0.0848,0.0841,0.0834,0.082,0.0816,0.0815,0.0794,0.0785,0.0773,0.0772,0.0767,0.0764,0.0765,0.076,0.0759,0.0759,0.0757,0.0756,0.0763,0.0763,0.0763,0.0763,0,0.0881,0.0873,0.0869,0.0857,0.085,0.0843,0.0833,0.0828,0.0822,0.0815,0.0804,0.0794,0.0782,0.0778,0.0773,0.0765,0.0765,0.0762,0.076,0.0759,0.0757,0.0756,0.0764,0.0764,0.0764,0.0763,0,0,0.0884,0.0868,0.0866,0.086,0.0848,0.0841,0.0833,0.0822,0.0817,0.0808,0.08,0.0787,0.0784,0.0777,0.077,0.0765,0.0762,0.0763,0.0763,0.0763,0.0752,0.0755,0.0754,0.0759,0.0759,0.0759,0.0753,0,0.0881,0.0867,0.086,0.0849,0.0841,0.0834,0.0827,0.0818,0.0811,0.0803,0.0795,0.0785,0.0783,0.0778,0.0773,0.0764,0.076,0.0764,0.0751,0.0751,0.0755,0.0753,0.0755,0.0751,0.0753,0.0752,0.0752,0,0.0875,0.0867,0.0856,0.0844,0.084,0.0834,0.0823,0.0816,0.0805,0.08,0.0793,0.0786,0.0777,0.0776,0.0762,0.0765,0.076,0.0754,0.0754,0.0752,0.0752,0.0751,0.0749,0.0749,0.0751,0.0751,0.0751,0,0.0879,0.0864,0.0855,0.0851,0.0836,0.0832,0.0826,0.0816,0.0809,0.08,0.0795,0.0785,0.0779,0.077,0.076,0.0761,0.0748,0.0746,0.0743,0.0743,0.0741,0.0741,0.0738,0.0737,0.0737,0.0737,0.0737,0,0.0876,0.0869,0.0857,0.0851,0.0843,0.0834,0.0827,0.082,0.081,0.0803,0.0795,0.0788,0.0777,0.0768,0.076,0.075,0.0748,0.0743,0.0741,0.0744,0.0744,0.074,0.074,0.0737,0.0737,0.0737,0.0737,0,0.0878,0.0869,0.0859,0.0847,0.0844,0.0838,0.0827,0.0821,0.0814,0.0805,0.0802,0.079,0.078,0.077,0.0755,0.075,0.074,0.0737,0.0744,0.0743,0.074,0.074,0.0734,0.0732,0.0733,0.0733,0.0733,0,0.0876,0.0871,0.0858,0.0853,0.0847,0.0839,0.0833,0.0824,0.0818,0.0805,0.08,0.079,0.078,0.0764,0.0753,0.0742,0.0739,0.0738,0.0738,0.074,0.0739,0.0739,0.0739,0.0738,0.0738,0.0738,0.0738,0,0.0875,0.0871,0.0863,0.0853,0.0846,0.0838,0.0829,0.0825,0.0814,0.0808,0.0797,0.079,0.0776,0.0765,0.0753,0.0745,0.074,0.0738,0.0737,0.0739,0.0743,0.0741,0.0744,0.0738,0.0738,0.0738,0.0738,0.0738,0.0875,0.087,0.086,0.0851,0.0844,0.0836,0.083,0.0822,0.0814,0.0802,0.0797,0.0786,0.0775,0.0758,0.0751,0.0742,0.074,0.0738,0.0738,0.0738,0.0738,0.0745,0.0739,0.0739,0.0739,0.0739,0.0739,0,0.0873,0.0867,0.0858,0.0847,0.084,0.0836,0.0826,0.082,0.0811,0.0802,0.0793,0.0781,0.077,0.0759,0.0748,0.0742,0.0739,0.074,0.074,0.0738,0.074,0.0742,0.0742,0.0742,0.0742,0.0742,0.0742,0.0742,0.0871,0.0863,0.0857,0.0845,0.0838,0.0828,0.0823,0.0815,0.0808,0.0795,0.0786,0.0779,0.0769,0.0757,0.0746,0.0743,0.0739,0.074,0.0736,0.0738,0.0738,0.0738,0.074,0.0739,0.0739,0.0735,0.0735,0.0735]}]]